sat.trackr.live / text

‹ back to catalog

JCSAT-2B

NORAD 41471 · 2016-028A

PAYLOAD ACTIVE UNKNOWN

§ Identity

Operator
Country
JPN
Launch date
2016-05-06
Launch site
AFETR
Launch vehicle
Mass (kg)
RCS (m²)
9.86

Purposes: comms

External: N2YO · Heavens-Above · Gunter

§ Orbital elements

Epoch: 2026-09-19T18:05:38.651712Z

Period
1,436.11 min
Inclination
0.0181°
Eccentricity
0.0000996
Mean motion
1.00271057 rev/d
Perigee alt
35,782.6 km
Apogee alt
35,791.0 km
Semi-major
42,164.9 km
B*
0.0000e+0
RAAN
153.3059°
Arg perigee
11.3987°
Mean anomaly
259.3778°
Rev number
3,807

§ Raw data

JCSAT-2B1 41471U 16028A   26262.75391958 -.00000169  00000+0  00000+0 0  99942 41471   0.0181 153.3059 0000996  11.3987 259.3778  1.00271057 38070

JSON: /api/v1/satellites/41471 · /tle

For live sub-satellite position, see the globe view (requires WebGL).

§ Visibility from observer

Set your observer location to see the next 7 days of passes ≥ 10°. The values pass through the URL so the page stays shareable.

No JS? Fill the form by hand. The geolocation button needs JavaScript.